Location: Driftpile
(55.3500°N, 115.7667°W)
Time: 09:14:08
(UTC+00:00)

N. Korean satellite - Pass Details

Date: 04 December 2021
Orbit: 447 x 490 km, 97.3° (Epoch: 26 January)

Event Time Altitude Azimuth Distance (km) Brightness Sun altitude
Rises 12:37:57 0° 20° (NNE) 2,478 10.4 -26.0°
Reaches altitude 10° 12:40:08 10° 30° (NNE) 1,595 9.5 -25.7°
Maximum altitude 12:43:17 34° 97° (E) 764 8.1 -25.2°
Drops below altitude 10° 12:46:23 10° 164° (SSE) 1,575 9.4 -24.8°
Sets 12:48:32 0° 174° (S) 2,441 10.3 -24.5°
